Terminal Aerodrome Forecast
Issued by NWS

Home | Current Version | Previous Version | Text Only | Print | Product List | Glossary On
Versions: 1 2 3 4 5 6 7 8 9 10 11 12 13 14 15 16 17
000
FTUS42 KMHX 221100
TAFISO
TAF
KISO 221133Z 2212/2312 02007KT 3SM -RA BR BKN005 OVC009
     FM221900 35005KT 5SM -DZ BR OVC006
     FM230000 36002KT 1SM BR OVC004
      AMD LTD TO CLD VIS AND WIND=

USA.gov is the U.S. government's official web portal to all federal, state and local government web resources and services.